Location: Newark
(45.4422°N, 16.2769°E)
Time: 07:13:41
(UTC+00:00)

Vanguard 2 - Pass Details

Date: 17 December 2019
Orbit: 553 x 2938 km, 32.9° (Epoch: 18 January)

Event Time Altitude Azimuth Distance (km) Brightness Sun altitude
Rises 05:49:44 0° 274° (W) 6,746 - -6.8°
Exits shadow 05:50:32 - 273° (W) 6,626 11.7 -6.7°
Reaches altitude 10° 05:57:01 10° 257° (WSW) 5,764 11.5 -5.7°
Maximum altitude 06:05:34 16° 227° (SW) 5,101 11.5 -4.3°
Drops below altitude 10° 06:13:29 10° 197° (SSW) 5,218 12.0 -3.1°
Sets 06:19:34 0° 177° (S) 5,810 12.5 -2.2°
